Theta_e
327 324 322 321 320 319 318 318 318 317 315 313 311 309 306 305 306 303 304 304 304 303 307 306 305 304 303 302 301 300 299 298 299 301 303 303 303 308 313 313 312 313 311
326 323 319 320 319 319 318 318 316 314 312 310 307 303 303 304 303 301 302 303 303 303 306 306 304 303 304 302 301 303 303 303 301 300 301 301 302 303 304 310 312 311 312
322 322 321 321 319 318 318 316 313 311 310 308 303 301 302 302 301 300 302 302 302 305 306 305 303 303 303 302 302 302 302 302 303 303 303 304 304 303 302 303 307 312 312
321 321 321 319 318 317 315 311 311 310 308 304 300 299 299 300 299 300 301 302 303 305 304 303 303 302 301 300 301 301 301 303 302 303 302 302 303 302 300 297 301 303 310
321 320 318 316 315 313 312 311 310 308 305 302 300 299 299 298 300 301 301 301 304 302 301 300 300 300 299 299 298 299 300 300 300 302 301 300 300 300 301 300 298 297 301
318 313 312 312 312 311 311 309 308 306 303 301 301 300 299 298 300 300 301 301 301 300 300 299 299 298 297 295 295 296 297 298 300 300 299 299 299 299 300 300 300 300 296
312 312 312 312 311 310 309 308 305 303 301 301 301 301 299 299 297 299 299 299 298 297 297 296 296 295 295 294 294 294 295 297 296 296 297 297 296 297 298 300 300 300 300
312 312 313 312 311 310 309 306 303 302 301 302 302 301 299 298 298 297 297 297 296 296 295 295 294 293 293 293 292 292 292 292 293 294 294 294 295 295 295 297 298 299 299
312 312 312 311 309 306 304 304 302 302 302 302 302 301 299 298 298 297 297 296 296 295 295 294 293 293 292 292 292 292 292 291 291 292 293 293 293 293 294 295 297 297 299
313 311 308 306 305 305 305 304 303 303 302 302 302 301 300 299 298 297 296 295 295 294 293 294 293 293 292 291 291 291 291 291 291 290 291 292 292 293 293 293 295 296 297
309 307 306 306 306 305 305 304 303 301 302 301 301 301 299 298 298 297 297 295 295 293 293 293 292 292 291 290 290 290 290 290 290 289 290 290 291 291 292 292 294 294 295
310 307 306 305 305 304 303 301 297 299 299 299 299 299 298 298 298 297 297 295 294 294 293 292 291 290 290 289 289 289 289 289 289 289 289 290 290 290 290 290 291 293 294
306 306 306 304 303 302 297 295 296 296 297 298 298 298 298 298 297 296 295 295 294 293 293 292 290 290 290 289 289 289 289 289 289 288 288 288 289 289 289 289 290 290 291
307 306 304 302 298 296 295 295 294 294 295 296 297 298 297 296 296 296 295 294 293 293 292 291 290 289 289 289 289 288 288 288 287 287 287 287 287 288 288 288 288 289 290
303 301 299 297 297 295 294 294 295 295 296 297 297 296 295 295 295 294 294 293 292 292 291 290 289 288 288 288 288 288 287 286 285 285 286 286 285 286 287 287 288 289 290
301 300 298 296 295 294 294 296 296 296 296 295 295 294 294 294 294 293 292 291 290 289 288 288 288 287 286 286 286 286 285 284 284 284 284 284 285 286 286 287 287 288 289
300 298 297 296 295 294 296 296 296 294 292 294 294 294 293 292 291 291 290 289 288 288 287 287 286 285 284 284 284 284 283 283 284 284 284 285 285 285 285 286 286 286 287
299 298 297 296 295 295 295 295 295 293 292 293 292 292 291 291 290 289 289 288 287 286 286 284 283 283 282 282 282 282 283 283 283 284 284 284 285 285 286 286 286 287 287
298 298 297 296 295 295 295 295 294 293 292 292 291 290 289 289 288 288 287 286 286 285 283 283 282 281 281 281 282 281 282 282 283 283 283 283 283 284 284 285 285 286 287
298 298 297 295 294 295 295 295 293 291 291 291 291 289 288 287 287 287 286 285 284 284 283 283 281 281 281 281 282 282 282 282 281 281 282 282 284 284 284 284 285 285 286
298 297 296 294 295 294 294 294 293 292 291 290 289 287 286 287 287 286 285 284 284 284 283 281 280 281 281 281 282 282 281 280 280 280 281 282 282 283 283 283 284 285 286
296 295 294 294 294 294 294 294 293 292 291 290 287 286 286 286 286 285 285 284 284 283 281 278 280 281 281 281 281 281 280 280 281 282 282 282 283 283 283 283 284 285 287
294 294 294 294 294 294 293 294 293 292 291 289 287 286 286 286 285 285 284 284 282 281 279 278 280 280 281 280 280 280 280 282 282 283 283 283 284 283 283 283 284 285 285
294 294 294 294 294 293 293 293 293 292 291 289 288 286 285 285 285 284 284 283 282 281 279 279 280 280 280 279 280 281 281 282 282 282 283 283 284 284 284 284 285 285 285
294 294 293 294 293 292 292 292 292 291 290 289 287 285 285 284 284 283 283 282 281 281 279 278 278 279 280 280 281 281 281 281 281 282 283 283 284 284 284 284 286 286 285
293 293 293 293 293 292 292 291 290 290 289 288 286 285 285 284 283 283 282 281 281 280 280 280 278 279 279 280 280 280 280 281 281 282 283 283 284 285 284 284 284 285 285
Wind_Speed
12 11 7 6 8 9 9 7 10 13 14 14 17 18 20 18 18 17 14 17 20 20 15 14 17 19 19 21 21 20 16 15 16 17 16 16 16 17 17 17 16 13 12
10 9 10 13 12 11 8 12 13 14 13 16 20 20 14 15 18 20 14 17 18 19 16 15 18 17 15 18 20 16 18 19 18 17 17 18 17 19 19 20 19 20 17
13 12 10 9 10 10 13 13 14 15 17 20 18 12 11 17 20 14 11 13 16 14 14 15 16 16 18 17 14 15 18 19 17 19 19 16 15 17 23 22 23 22 24
12 9 9 8 7 11 13 16 16 16 19 18 20 17 18 19 19 13 13 10 17 11 10 10 12 15 17 18 14 16 19 17 18 18 16 15 15 19 21 26 26 26 25
9 7 5 6 7 12 13 14 16 20 22 23 24 24 23 18 14 15 14 8 2 1 7 8 13 17 19 18 18 14 17 22 22 16 16 18 17 21 22 22 26 28 27
6 5 6 6 9 10 11 13 18 22 24 26 25 23 24 21 6 12 8 8 7 9 10 14 18 20 22 22 16 13 17 19 17 17 20 21 21 20 20 21 22 24 28
6 6 8 8 8 7 11 14 17 20 24 24 26 28 31 11 22 9 12 15 17 17 19 20 20 20 18 19 18 18 19 18 18 20 19 20 22 18 20 19 20 22 23
8 8 9 11 13 14 16 18 18 20 20 21 23 28 17 27 8 19 18 22 20 16 16 15 16 16 17 20 22 24 23 22 21 21 20 20 20 21 20 21 20 21 22
8 7 10 13 14 15 17 18 18 18 18 21 25 21 15 8 30 21 24 17 22 23 22 19 17 13 15 20 24 25 20 20 23 20 19 20 21 22 23 23 23 21 21
6 8 10 12 13 14 16 16 15 19 22 24 23 21 21 24 28 29 11 21 18 21 22 23 24 24 27 28 20 19 21 23 20 23 24 22 23 23 24 25 24 24 21
3 2 6 10 12 15 17 20 22 23 18 19 23 23 26 27 26 27 31 24 26 25 24 22 25 29 34 32 27 26 25 27 26 26 23 22 24 26 27 25 24 24 23
10 10 12 14 16 19 21 25 23 21 22 23 24 28 28 27 26 23 30 29 26 28 26 25 24 29 22 21 25 27 25 25 27 27 25 25 26 27 27 27 29 26 26
14 16 20 21 23 26 25 21 21 21 21 21 20 24 24 25 23 20 19 24 24 31 30 26 27 26 17 26 23 28 24 27 32 36 36 34 31 29 29 30 31 30 30
21 18 24 24 24 22 22 22 22 21 20 20 19 21 25 26 20 22 23 18 23 26 30 29 28 20 22 20 20 26 31 36 40 42 41 38 36 31 30 30 31 31 32
18 19 19 18 20 21 20 18 16 16 18 20 22 25 25 14 14 14 13 16 17 21 32 29 24 21 21 26 33 37 40 40 41 38 36 37 34 30 29 28 28 28 28
16 18 19 17 18 19 17 17 19 20 22 23 24 18 12 13 15 14 13 14 16 15 24 28 32 33 33 34 35 37 40 39 31 30 29 27 26 27 28 28 29 27 27
19 19 19 18 19 16 15 20 23 28 22 17 16 15 16 17 13 12 15 17 21 25 29 35 36 38 39 38 39 37 29 28 27 28 28 25 26 26 26 28 30 30 28
20 21 19 20 19 16 17 22 25 24 19 19 17 16 14 14 15 18 22 26 29 27 30 38 35 34 35 33 27 26 25 24 25 23 24 24 24 25 24 24 26 22 25
18 19 21 23 18 18 20 23 22 19 18 14 11 11 13 17 20 24 25 25 27 30 28 25 31 33 28 24 25 25 26 25 25 27 25 24 24 23 25 27 29 26 24
17 22 25 24 18 20 22 23 24 19 18 16 16 16 19 19 19 21 25 28 26 29 26 29 32 27 25 24 25 28 30 29 35 32 28 22 20 21 22 23 22 26 28
22 23 24 20 20 23 25 26 22 17 18 19 20 20 19 20 22 25 23 25 28 27 30 32 30 27 28 29 27 26 30 39 36 29 27 26 25 24 24 23 23 26 26
22 22 23 23 25 24 25 26 23 20 20 21 20 20 17 20 20 21 24 24 24 28 31 27 26 26 29 23 26 33 35 30 34 26 28 27 21 23 21 21 21 22 13
22 23 25 25 23 24 25 27 24 22 20 20 19 19 17 19 21 22 24 25 23 25 23 21 21 22 27 27 31 32 23 27 30 31 31 30 28 26 20 21 19 19 20
22 24 22 24 28 26 24 25 24 22 21 21 20 20 19 21 21 23 25 24 25 24 21 16 17 25 29 27 19 19 24 27 25 27 23 29 28 22 21 18 19 16 17
22 26 27 27 27 24 22 23 23 24 20 20 21 18 18 19 21 23 23 24 25 21 18 16 16 14 13 12 13 17 19 24 30 30 26 23 28 28 24 18 13 9 15
26 27 29 25 23 25 25 25 28 24 23 21 21 21 19 19 21 21 22 24 23 19 18 15 17 14 11 13 14 16 18 21 23 31 28 30 32 22 18 15 13 14 17
Wind_Direction
168 167 164 194 209 225 248 272 276 292 313 322 323 324 327 324 321 336 321 327 328 326 317 327 331 335 339 328 335 327 319 315 316 315 306 295 288 278 283 269 269 274 277
198 209 227 232 234 249 256 294 294 311 319 321 325 331 338 315 322 329 315 321 315 311 301 316 325 324 343 339 341 359 358 344 324 315 317 308 295 285 276 278 266 264 263
222 251 247 230 241 257 292 298 305 309 311 317 327 346 323 314 326 326 319 324 324 321 309 313 314 317 318 334 358 356 354 349 340 338 334 326 324 308 279 271 273 261 260
223 221 227 235 256 283 290 299 307 309 322 329 332 329 322 325 332 335 311 314 326 313 301 301 306 310 315 318 335 334 341 342 334 332 317 314 333 322 300 285 277 277 269
204 201 231 266 278 288 292 302 310 317 326 331 330 330 332 337 337 326 343 291 65 342 337 318 307 312 317 313 310 326 325 328 311 313 324 324 322 320 317 308 289 278 275
195 227 254 278 284 282 284 298 314 321 323 326 324 328 332 339 348 328 324 328 316 326 317 317 318 318 321 322 324 323 324 318 309 309 310 314 315 318 316 309 309 303 278
212 235 266 292 308 286 299 306 310 313 321 321 326 328 332 327 337 290 311 314 319 317 315 318 320 322 324 324 325 323 323 311 302 300 308 312 319 318 316 313 310 304 305
210 211 241 265 280 288 297 307 311 313 317 322 324 325 329 326 358 315 303 298 309 315 321 327 326 323 325 325 323 322 320 314 308 306 306 308 309 311 312 307 301 307 304
237 275 284 291 295 303 310 314 316 318 313 310 312 314 321 298 316 317 313 303 302 302 304 307 312 316 316 317 318 320 322 312 308 298 299 304 308 306 306 303 302 301 303
275 292 303 310 308 310 307 309 310 306 306 306 305 298 291 294 304 312 292 294 295 298 299 286 291 300 311 313 310 313 313 308 307 302 304 300 301 302 303 297 297 296 299
303 316 259 260 263 277 284 293 297 301 297 302 301 298 301 300 298 297 296 294 294 298 296 289 294 299 301 303 306 308 308 301 306 307 305 300 298 296 296 293 291 288 285
203 234 248 247 264 274 283 290 291 290 293 297 301 299 300 299 300 297 289 294 294 297 292 299 299 310 310 306 306 304 302 294 292 299 300 300 298 296 294 292 283 286 283
221 246 265 264 273 282 289 294 296 295 293 294 301 295 284 294 298 288 279 277 286 293 295 301 308 314 313 308 306 295 285 283 289 293 294 293 294 293 292 289 287 278 276
246 274 259 269 280 290 295 295 298 299 297 294 292 285 295 297 287 278 286 285 291 292 298 306 313 320 314 299 294 294 291 292 294 298 293 290 291 293 292 290 287 278 274
267 258 266 280 286 291 299 306 305 299 293 288 288 291 295 293 279 287 281 287 298 305 302 311 314 306 294 286 288 290 292 295 299 295 290 292 294 292 291 288 285 280 276
268 271 274 283 292 298 300 296 296 295 297 296 299 304 285 280 283 291 297 297 297 295 296 298 300 302 303 298 293 293 298 301 298 297 299 297 295 293 292 288 286 281 275
268 285 285 293 296 298 288 290 294 304 308 303 296 290 295 301 312 293 288 289 289 293 296 299 301 301 298 298 299 303 304 302 304 302 301 298 300 296 293 291 288 283 277
271 281 284 294 295 284 285 290 295 305 308 298 294 302 303 296 289 289 294 295 297 299 302 303 305 308 306 307 307 307 311 309 309 305 307 300 295 295 295 295 294 293 272
270 271 284 294 289 280 284 291 308 296 298 290 290 297 297 297 296 298 300 298 299 301 308 308 313 318 317 316 317 317 316 312 304 308 304 304 299 292 296 295 291 290 282
271 280 292 298 293 284 285 287 301 287 284 279 279 279 288 296 296 293 294 300 304 313 317 315 317 318 320 323 321 317 315 313 311 307 302 309 305 297 298 300 306 287 281
287 290 295 297 290 291 289 293 301 286 275 281 287 289 286 287 290 294 296 301 309 314 313 315 313 314 318 324 320 316 315 318 314 315 306 303 307 301 295 299 302 309 279
291 294 293 292 292 290 292 293 297 287 287 287 295 299 284 289 294 291 296 306 308 309 309 306 304 310 315 314 310 311 315 316 320 333 325 316 317 311 309 305 304 305 311
300 292 291 285 283 287 290 287 291 288 283 282 295 295 283 288 294 291 293 298 304 310 310 302 295 300 300 303 307 313 311 313 314 322 321 315 324 313 313 311 305 293 293
287 292 287 285 292 289 288 287 285 282 282 280 292 293 285 288 288 293 298 306 314 317 315 305 283 293 297 304 306 306 312 324 318 317 333 316 328 318 321 316 311 285 276
291 286 289 288 289 283 281 285 282 280 274 283 296 290 285 278 288 294 301 307 314 319 316 314 314 311 307 312 308 313 319 317 312 313 323 317 320 318 316 313 340 356 331
284 289 289 286 286 286 288 287 295 290 281 289 295 295 287 284 286 292 300 309 314 319 323 329 334 333 330 320 313 310 310 313 318 317 324 314 314 318 314 314 312 326 329